Time,TemperatureF,DewpointF,PressureIn,WindDirection,WindDirectionDegrees,WindSpeedMPH,WindSpeedGustMPH,Humidity,HourlyPrecipIn,Conditions,Clouds,dailyrainin,SolarRadiationWatts/m^2,SoftwareType,DateUTC
2013-09-22 00:02:00,-999.0,-99.9,-100.00,North,2,8.0,14.0,-999,-99.99,,,-99.99,0.000000,,2013-09-22 04:02:00,
2013-09-22 00:24:00,44.0,39.0,-100.00,North,8,5.0,16.0,84,0.00,,,0.01,0.000000,,2013-09-22 04:24:00,
2013-09-22 00:33:00,44.0,39.0,-100.00,North,8,5.0,16.0,84,0.00,,,0.01,0.000000,,2013-09-22 04:33:00,
2013-09-22 00:44:00,44.0,39.0,-100.00,North,8,5.0,16.0,84,0.00,,,0.01,0.000000,,2013-09-22 04:44:00,
2013-09-22 00:54:00,44.0,39.0,-100.00,North,8,5.0,16.0,84,0.00,,,0.01,0.000000,,2013-09-22 04:54:00,
2013-09-22 01:03:00,44.0,39.0,-100.00,North,8,5.0,16.0,84,0.00,,,0.01,0.000000,,2013-09-22 05:03:00,
2013-09-22 01:23:00,43.0,39.0,-100.00,NNE,18,6.0,12.0,86,0.01,,,0.01,0.000000,,2013-09-22 05:23:00,
2013-09-22 01:35:00,43.0,39.0,-100.00,NNE,18,6.0,12.0,86,0.01,,,0.01,0.000000,,2013-09-22 05:35:00,
2013-09-22 01:43:00,43.0,39.0,-100.00,NNE,18,6.0,12.0,86,0.01,,,0.01,0.000000,,2013-09-22 05:43:00,
2013-09-22 01:53:00,43.0,39.0,-100.00,NNE,18,6.0,12.0,86,0.01,,,0.01,0.000000,,2013-09-22 05:53:00,
2013-09-22 02:02:00,43.0,39.0,-100.00,NNE,18,6.0,12.0,86,0.01,,,0.01,0.000000,,2013-09-22 06:02:00,
2013-09-22 02:22:00,43.0,35.0,-100.00,NNE,30,5.0,13.0,73,0.00,,,0.01,0.000000,,2013-09-22 06:22:00,
2013-09-22 02:32:00,43.0,35.0,-100.00,NNE,30,5.0,13.0,73,0.00,,,0.01,0.000000,,2013-09-22 06:32:00,
2013-09-22 02:42:00,43.0,35.0,-100.00,NNE,30,5.0,13.0,73,0.00,,,0.01,0.000000,,2013-09-22 06:42:00,
2013-09-22 02:52:00,43.0,35.0,-100.00,NNE,30,5.0,13.0,73,0.00,,,0.01,0.000000,,2013-09-22 06:52:00,
2013-09-22 03:02:00,43.0,35.0,-100.00,NNE,30,5.0,13.0,73,0.00,,,0.01,0.000000,,2013-09-22 07:02:00,
2013-09-22 03:04:00,43.0,35.0,-100.00,NNE,24,6.0,12.0,73,0.00,,,0.01,0.000000,,2013-09-22 07:04:00,
2013-09-22 03:22:00,43.0,35.0,-100.00,NNE,24,6.0,12.0,73,0.00,,,0.01,0.000000,,2013-09-22 07:22:00,
2013-09-22 03:32:00,43.0,35.0,-100.00,NNE,24,6.0,12.0,73,0.00,,,0.01,0.000000,,2013-09-22 07:32:00,
2013-09-22 03:42:00,43.0,35.0,-100.00,NNE,24,6.0,12.0,73,0.00,,,0.01,0.000000,,2013-09-22 07:42:00,
2013-09-22 03:52:00,43.0,35.0,-100.00,NNE,24,6.0,12.0,73,0.00,,,0.01,0.000000,,2013-09-22 07:52:00,
2013-09-22 04:22:00,41.0,35.0,-100.00,NE,52,3.0,12.0,80,0.00,,,0.01,0.000000,,2013-09-22 08:22:00,
2013-09-22 04:32:00,41.0,35.0,-100.00,NE,52,3.0,12.0,80,0.00,,,0.01,0.000000,,2013-09-22 08:32:00,
2013-09-22 04:42:00,41.0,35.0,-100.00,NE,52,3.0,12.0,80,0.00,,,0.01,0.000000,,2013-09-22 08:42:00,
2013-09-22 04:52:00,41.0,35.0,-100.00,NE,52,3.0,12.0,80,0.00,,,0.01,0.000000,,2013-09-22 08:52:00,
2013-09-22 05:02:00,41.0,35.0,-100.00,NE,52,3.0,12.0,80,0.00,,,0.01,0.000000,,2013-09-22 09:02:00,
2013-09-22 05:04:00,39.0,33.0,-100.00,NE,46,3.0,9.0,79,0.00,,,0.01,0.000000,,2013-09-22 09:04:00,
2013-09-22 05:22:00,39.0,33.0,-100.00,NE,46,3.0,9.0,79,0.00,,,0.01,0.000000,,2013-09-22 09:22:00,
2013-09-22 05:33:00,39.0,33.0,-100.00,NE,46,3.0,9.0,79,0.00,,,0.01,0.000000,,2013-09-22 09:33:00,
2013-09-22 05:43:00,39.0,33.0,-100.00,NE,46,3.0,9.0,79,0.00,,,0.01,0.000000,,2013-09-22 09:43:00,
2013-09-22 05:54:00,39.0,33.0,-100.00,NE,46,3.0,9.0,79,0.00,,,0.01,0.000000,,2013-09-22 09:54:00,
2013-09-22 06:23:00,39.0,36.0,-100.00,South,174,1.0,4.0,89,0.00,,,0.01,0.000000,,2013-09-22 10:23:00,
2013-09-22 06:33:00,39.0,36.0,-100.00,South,174,1.0,4.0,89,0.00,,,0.01,0.000000,,2013-09-22 10:33:00,
2013-09-22 06:44:00,39.0,36.0,-100.00,South,174,1.0,4.0,89,0.00,,,0.01,0.000000,,2013-09-22 10:44:00,
2013-09-22 06:53:00,39.0,36.0,-100.00,South,174,1.0,4.0,89,0.00,,,0.01,0.000000,,2013-09-22 10:53:00,
2013-09-22 07:42:00,38.0,36.0,-100.00,NNE,27,2.0,3.0,93,0.00,,,0.01,0.000000,,2013-09-22 11:42:00,
2013-09-22 07:52:00,38.0,36.0,-100.00,NNE,27,2.0,3.0,93,0.00,,,0.01,0.000000,,2013-09-22 11:52:00,
2013-09-22 08:02:00,38.0,36.0,-100.00,NNE,27,2.0,3.0,93,0.00,,,0.01,0.000000,,2013-09-22 12:02:00,
2013-09-22 08:22:00,37.0,35.0,-100.00,SSE,161,2.0,5.0,92,0.00,,,0.01,13.000000,,2013-09-22 12:22:00,
2013-09-22 08:32:00,37.0,35.0,-100.00,SSE,161,2.0,5.0,92,0.00,,,0.01,13.000000,,2013-09-22 12:32:00,
2013-09-22 08:42:00,37.0,35.0,-100.00,SSE,161,2.0,5.0,92,0.00,,,0.01,13.000000,,2013-09-22 12:42:00,
2013-09-22 08:52:00,37.0,35.0,-100.00,SSE,161,2.0,5.0,92,0.00,,,0.01,13.000000,,2013-09-22 12:52:00,
2013-09-22 09:02:00,37.0,35.0,-100.00,SSE,161,2.0,5.0,92,0.00,,,0.01,13.000000,,2013-09-22 13:02:00,
2013-09-22 09:42:00,45.0,40.0,-100.00,ENE,70,3.0,6.0,81,0.00,,,0.01,140.000000,,2013-09-22 13:42:00,
2013-09-22 09:52:00,45.0,40.0,-100.00,ENE,70,3.0,6.0,81,0.00,,,0.01,140.000000,,2013-09-22 13:52:00,
2013-09-22 10:02:00,45.0,40.0,-100.00,ENE,70,3.0,6.0,81,0.00,,,0.01,140.000000,,2013-09-22 14:02:00,
2013-09-22 10:22:00,45.0,40.0,-100.00,NNW,345,3.0,8.0,84,0.01,,,0.02,141.000000,,2013-09-22 14:22:00,
2013-09-22 10:32:00,45.0,40.0,-100.00,NNW,345,3.0,8.0,84,0.01,,,0.02,141.000000,,2013-09-22 14:32:00,
2013-09-22 10:42:00,45.0,40.0,-100.00,NNW,345,3.0,8.0,84,0.01,,,0.02,141.000000,,2013-09-22 14:42:00,
2013-09-22 10:52:00,45.0,40.0,-100.00,NNW,345,3.0,8.0,84,0.01,,,0.02,141.000000,,2013-09-22 14:52:00,
2013-09-22 11:02:00,45.0,40.0,-100.00,NNW,345,3.0,8.0,84,0.01,,,0.02,141.000000,,2013-09-22 15:02:00,
2013-09-22 11:04:00,45.0,43.0,-100.00,NNW,331,4.0,7.0,92,0.07,,,0.09,139.000000,,2013-09-22 15:04:00,
2013-09-22 11:23:00,45.0,43.0,-100.00,NNW,331,4.0,7.0,92,0.07,,,0.09,139.000000,,2013-09-22 15:23:00,
2013-09-22 11:34:00,45.0,43.0,-100.00,NNW,331,4.0,7.0,92,0.07,,,0.09,139.000000,,2013-09-22 15:34:00,
2013-09-22 11:44:00,45.0,43.0,-100.00,NNW,331,4.0,7.0,92,0.07,,,0.09,139.000000,,2013-09-22 15:44:00,
2013-09-22 11:55:00,45.0,43.0,-100.00,NNW,331,4.0,7.0,92,0.07,,,0.09,139.000000,,2013-09-22 15:55:00,
2013-09-22 12:04:00,45.0,43.0,-100.00,NNW,335,3.0,7.0,92,0.09,,,0.18,159.000000,,2013-09-22 16:04:00,
2013-09-22 12:24:00,45.0,43.0,-100.00,NNW,335,3.0,7.0,92,0.09,,,0.18,159.000000,,2013-09-22 16:24:00,
2013-09-22 12:33:00,45.0,43.0,-100.00,NNW,335,3.0,7.0,92,0.09,,,0.18,159.000000,,2013-09-22 16:33:00,
2013-09-22 12:43:00,45.0,43.0,-100.00,NNW,335,3.0,7.0,92,0.09,,,0.18,159.000000,,2013-09-22 16:43:00,
2013-09-22 12:54:00,45.0,43.0,-100.00,NNW,335,3.0,7.0,92,0.09,,,0.18,159.000000,,2013-09-22 16:54:00,
2013-09-22 13:43:00,49.0,45.0,-100.00,NNE,12,6.0,10.0,86,0.01,,,0.19,278.000000,,2013-09-22 17:43:00,
2013-09-22 13:53:00,49.0,45.0,-100.00,NNE,12,6.0,10.0,86,0.01,,,0.19,278.000000,,2013-09-22 17:53:00,
2013-09-22 14:02:00,49.0,45.0,-100.00,NNE,12,6.0,10.0,86,0.01,,,0.19,278.000000,,2013-09-22 18:02:00,
2013-09-22 14:42:00,49.0,39.0,-100.00,North,356,9.0,14.0,69,0.00,,,0.19,338.000000,,2013-09-22 18:42:00,
2013-09-22 14:52:00,49.0,39.0,-100.00,North,356,9.0,14.0,69,0.00,,,0.19,338.000000,,2013-09-22 18:52:00,
2013-09-22 15:02:00,49.0,39.0,-100.00,North,356,9.0,14.0,69,0.00,,,0.19,338.000000,,2013-09-22 19:02:00,
2013-09-22 15:42:00,51.0,38.0,-100.00,North,6,7.0,13.0,61,0.00,,,0.19,389.000000,,2013-09-22 19:42:00,
2013-09-22 15:53:00,51.0,38.0,-100.00,North,6,7.0,13.0,61,0.00,,,0.19,389.000000,,2013-09-22 19:53:00,
2013-09-22 16:03:00,51.0,38.0,-100.00,North,6,7.0,13.0,61,0.00,,,0.19,389.000000,,2013-09-22 20:03:00,
2013-09-22 16:42:00,54.0,38.0,-100.00,North,11,6.0,12.0,54,0.00,,,0.19,613.000000,,2013-09-22 20:42:00,
2013-09-22 16:52:00,54.0,38.0,-100.00,North,11,6.0,12.0,54,0.00,,,0.19,613.000000,,2013-09-22 20:52:00,
2013-09-22 17:02:00,54.0,38.0,-100.00,North,11,6.0,12.0,54,0.00,,,0.19,613.000000,,2013-09-22 21:02:00,
2013-09-22 17:04:00,54.0,37.0,-100.00,NNE,21,7.0,11.0,52,0.00,,,0.19,241.000000,,2013-09-22 21:04:00,
2013-09-22 17:45:00,54.0,37.0,-100.00,NNE,21,7.0,11.0,52,0.00,,,0.19,241.000000,,2013-09-22 21:45:00,
2013-09-22 17:54:00,54.0,37.0,-100.00,NNE,21,7.0,11.0,52,0.00,,,0.19,241.000000,,2013-09-22 21:54:00,
2013-09-22 18:43:00,49.0,35.0,-100.00,NNE,21,5.0,12.0,58,0.00,,,0.19,83.000000,,2013-09-22 22:43:00,
2013-09-22 18:54:00,49.0,35.0,-100.00,NNE,21,5.0,12.0,58,0.00,,,0.19,83.000000,,2013-09-22 22:54:00,
2013-09-22 19:03:00,49.0,35.0,-100.00,NNE,21,5.0,12.0,58,0.00,,,0.19,83.000000,,2013-09-22 23:03:00,
2013-09-22 19:43:00,50.0,36.0,-100.00,North,9,3.0,9.0,59,0.00,,,0.19,188.000000,,2013-09-22 23:43:00,
2013-09-22 19:52:00,50.0,36.0,-100.00,North,9,3.0,9.0,59,0.00,,,0.19,188.000000,,2013-09-22 23:52:00,
2013-09-22 20:01:00,50.0,36.0,-100.00,North,9,3.0,9.0,59,0.00,,,0.19,188.000000,,2013-09-23 00:01:00,
2013-09-22 20:23:00,42.0,36.0,-100.00,North,11,3.0,5.0,79,0.00,,,0.19,16.000000,,2013-09-23 00:23:00,
2013-09-22 20:32:00,42.0,36.0,-100.00,North,11,3.0,5.0,79,0.00,,,0.19,16.000000,,2013-09-23 00:32:00,
2013-09-22 20:42:00,42.0,36.0,-100.00,North,11,3.0,5.0,79,0.00,,,0.19,16.000000,,2013-09-23 00:42:00,
2013-09-22 20:53:00,42.0,36.0,-100.00,North,11,3.0,5.0,79,0.00,,,0.19,16.000000,,2013-09-23 00:53:00,
2013-09-22 21:01:00,42.0,36.0,-100.00,North,11,3.0,5.0,79,0.00,,,0.19,16.000000,,2013-09-23 01:01:00,
2013-09-22 21:22:00,38.0,35.0,-100.00,NW,315,1.0,5.0,90,0.00,,,0.19,0.000000,,2013-09-23 01:22:00,
2013-09-22 21:32:00,38.0,35.0,-100.00,NW,315,1.0,5.0,90,0.00,,,0.19,0.000000,,2013-09-23 01:32:00,
2013-09-22 21:43:00,38.0,35.0,-100.00,NW,315,1.0,5.0,90,0.00,,,0.19,0.000000,,2013-09-23 01:43:00,
2013-09-22 21:52:00,38.0,35.0,-100.00,NW,315,1.0,5.0,90,0.00,,,0.19,0.000000,,2013-09-23 01:52:00,
2013-09-22 22:02:00,38.0,35.0,-100.00,NW,315,1.0,5.0,90,0.00,,,0.19,0.000000,,2013-09-23 02:02:00,
2013-09-22 22:42:00,36.0,34.0,-100.00,NW,309,1.0,4.0,92,0.00,,,0.19,0.000000,,2013-09-23 02:42:00,
2013-09-22 22:52:00,36.0,34.0,-100.00,NW,309,1.0,4.0,92,0.00,,,0.19,0.000000,,2013-09-23 02:52:00,
2013-09-22 23:03:00,36.0,34.0,-100.00,NW,309,1.0,4.0,92,0.00,,,0.19,0.000000,,2013-09-23 03:03:00,
2013-09-22 23:04:00,35.0,33.0,-100.00,South,174,0.0,2.0,94,0.00,,,0.19,0.000000,,2013-09-23 03:04:00,
2013-09-22 23:44:00,35.0,33.0,-100.00,South,174,0.0,2.0,94,0.00,,,0.19,0.000000,,2013-09-23 03:44:00,
2013-09-22 23:54:00,35.0,33.0,-100.00,South,174,0.0,2.0,94,0.00,,,0.19,0.000000,,2013-09-23 03:54:00,